Regional Weather Roundup
Issued by NWS

Home | Current Version | Previous Version | Graphics & Text | Print | Product List | Glossary On
Versions: 1 2 3 4 5 6 7 8 9 10 11 12 13 14 15 16 17 18 19 20 21 22 23 24 25 26 27 28 29 30 31 32 33 34 35 36 37 38 39 40 41 42 43 44 45 46 47 48 49 50
505
ASUS43 KMKX 092021
RWRWI

WISCONSIN REGIONAL WEATHER ROUNDUP
NATIONAL WEATHER SERVICE MILWAUKEE/SULLIVAN WI
200 PM CST TUE FEB 09 2016

NOTE: "FAIR" INDICATES FEW OR NO CLOUDS BELOW 12,000 FEET WITH NO
SIGNIFICANT WEATHER AND/OR OBSTRUCTIONS TO VISIBILITY.

WIZ001-002-006>008-014>016-023>028-092100-
NORTHWEST WISCONSIN

CITY           SKY/WX    TMP DP  RH WIND       PRES   REMARKS
SUPERIOR ARPT  SUNNY     13  -3  49 N14G20    30.08S WCI  -2
ASHLAND        CLOUDY    11   2  67 NW9       30.02F WCI  -2
HAYWARD        CLOUDY     9   0  67 NW9       29.99F WCI  -4
SIREN          SUNNY     15  -3  46 N10G18    30.04F WCI   2
CUMBERLAND     SUNNY     12  -2  52 NW16      29.99F WCI  -4
RICE LAKE      SUNNY     13  -1  55 NW9       30.01F WCI   0
CHETEK         SUNNY     11   0  60 N7G16     30.00F WCI   1
LADYSMITH      PTSUNNY   12   2  63 N14G21    29.97F WCI  -3
EAU CLAIRE     SUNNY     11  -3  53 NW15      30.00F WCI  -5
MENOMONIE      SUNNY     16   0  49 NW14      30.02F WCI   2
NEW RICHMOND   SUNNY     15  -1  50 NW21      30.03F WCI  -3
OSCEOLA        SUNNY     16  -1  48 NW13G21   30.09S WCI   2
$$

WIZ003>005-009-010-017-018-092100-
NORTH CENTRAL WISCONSIN

CITY           SKY/WX    TMP DP  RH WIND       PRES   REMARKS
MANITOWISH WTR LGT SNOW  10   3  74 N14G20    29.87R WCI  -6
ARBOR VITAE    LGT SNOW  13   6  74 N17G24    29.85S WCI  -4
WOODRUFF       LGT SNOW  13   6  74 N17G24    29.85S WCI  -4
RHINELANDER    LGT SNOW  12   3  67 N17G28    29.82S WCI  -5
EAGLE RIVER    LGT SNOW  12   2  65 N21G28    29.82S WCI  -7
LAND O LAKES   LGT SNOW  10   4  75 N17G30    29.83S WCI  -7
PHILLIPS       CLOUDY     9   0  65 NW13G23   29.90S WCI  -7
TOMAHAWK       LGT SNOW  13   5  70 NW12G18   29.86R WCI  -1
MEDFORD        CLOUDY    11   3  70 N20G29    29.87S HAZE    WCI  -7
MERRILL        CLOUDY    15   4  62 N13       29.85S WCI   1
$$

WIZ029-030-035-036-043>047-092100-
CENTRAL WISCONSIN

CITY           SKY/WX    TMP DP  RH WIND       PRES   REMARKS
WAUSAU         CLOUDY    16   5  62 NW13G24   29.83S WCI   2
MOSINEE        CLOUDY    16   7  67 NW20G26   29.85S WCI  -1
MARSHFIELD     CLOUDY    13   3  64 NW26G33   29.87S HAZE    WCI  -7
STEVENS POINT  CLOUDY    15   5  64 NW14G24   29.85S WCI   0
WAUPACA        CLOUDY    21   7  53 NW14      29.84S WCI   8
WAUTOMA        CLOUDY    17   6  62 NW16G22   29.86F WCI   2
WISC RAPIDS    CLOUDY    15   4  61 NW23G29   29.89S WCI  -3
CAMP DOUGLAS   PTSUNNY   14   3  62 NW17      29.91F WCI  -3
$$

WIZ011>013-019>022-031-037>040-048>050-092100-
NORTHEAST WISCONSIN

CITY           SKY/WX    TMP DP  RH WIND       PRES   REMARKS
ANTIGO         CLOUDY    13   6  72 N18G26    29.80S HAZE    WCI  -4
SHAWANO        CLOUDY    20   6  53 NW14G21   29.83S WCI   7
OCONTO         CLOUDY    18   6  58 NW12G20   29.82R WCI   6
STURGEON BAY   CLOUDY    18   7  62 NW15G24   29.81R WCI   3
GREEN BAY      LGT SNOW  18   9  68 N15       29.82R WCI   4
MANITOWOC      FLURRIES  19   9  65 NW14      29.81R WCI   6
APPLETON       PTSUNNY   18   5  57 NW15      29.80S WCI   3
CLINTONVILLE   CLOUDY    19   7  58 NW12G22   29.83S WCI   7
OSHKOSH        LGT SNOW  16  10  77 W13       29.82S WCI   2
$$

WIZ032>034-041-042-053>061-092100-
SOUTHWEST WISCONSIN

CITY           SKY/WX    TMP DP  RH WIND       PRES   REMARKS
LA CROSSE      SUNNY     14   0  53 N16       30.00F WCI  -2
SPARTA         MOSUNNY   14   2  60 NW16      29.97F WCI  -2
VIROQUA        MOSUNNY   12   1  60 NW12G21   29.92F WCI  -2
BOSCOBEL       MOSUNNY   16   1  51 NW14G23   29.97F WCI   2
PRAIRIE DU CHI SUNNY     15   1  55 W17G23    29.99S WCI  -1
PLATTEVILLE    PTSUNNY   14   4  65 NW16      29.92S WCI  -2
$$

WIZ056-057-062-063-064-067-068-092100-
SOUTH CENTRAL WISCONSIN

CITY           SKY/WX    TMP DP  RH WIND       PRES   REMARKS
REEDSBURG      CLOUDY    14   3  61 NW16G22   29.90S WCI  -2
BARABOO/DELLS  CLOUDY    15   4  62 NW13G24   29.89S WCI   0
LONE ROCK      CLOUDY    15   2  56 NW14      29.94S WCI   0
MINERAL POINT  MOSUNNY   18   3  53 NW13G20   29.89S WCI   4
MADISON        FLURRIES  14   4  64 NW15G22   29.88R WCI  -1
MIDDLETON      PTSUNNY   16   6  65 NW17      29.88S WCI   0
WATERTOWN      CLOUDY    16   7  69 NW14G23   29.85R WCI   1
MONROE         CLOUDY    16   9  73 NW10G21   29.86S HAZE    WCI   3
JANESVILLE     CLOUDY    18   7  62 NW20      29.86S WCI   1
$$

WIZ051-052-058>065-066-070>072-092100-
SOUTHEAST WISCONSIN

CITY           SKY/WX    TMP DP  RH WIND       PRES   REMARKS
MILWAUKEE      CLOUDY    17   6  62 NW13      29.82S WCI   4
WAUKESHA       CLOUDY    14   7  73 W17       29.83R WCI  -3
MILWAUKEE/TIMM CLOUDY    18   7  62 NW14G25   29.83S WCI   4
RACINE         CLOUDY    18   6  59 N14G21    29.83R WCI   4
BURLINGTON     CLOUDY    15   5  64 NW17      29.84S WCI  -2
KENOSHA        CLOUDY    17   7  64 NW12      29.82S WCI   4
FOND DU LAC    LGT SNOW  17   9  70 NW14      29.83S WCI   3
SHEBOYGAN      CLOUDY    18   7  62 NW16      29.80S WCI   3
WEST BEND      FLURRIES  18   9  68 NW15G23   29.82R WCI   3
JUNEAU         LGT SNOW  14   6  69 NW13G22   29.85S WCI   0
$$

LSZ147-162-092100-
LAKE SUPERIOR

STATION/POSITION TIME  TEMP    WIND        PRES    WAVE
                       AIR SEA DIR/SP/G            HT/PER
                 (UTC) (F)     (DEG/KT/KT) (MB)    (FT/S)
DEVILS ISLAND    2000   10     330/ 15/ 19 1018.6F
SAXON HARBOR     1900   11                 1016.6
$$

LMZ867-665-643>646-092100-
LAKE MICHIGAN

STATION/POSITION TIME  TEMP    WIND        PRES    WAVE
                       AIR SEA DIR/SP/G            HT/PER
                 (UTC) (F)     (DEG/KT/KT) (MB)    (FT/S)
CHAMBERS ISLAND  1900   19     310/ 15/ 25 1008.5R
ALGOMA LAKESHORE 1911          320/ 14/ 20   N/A
KEWAUNEE LAKESHO 1900   18     340/ 15/ 21 1007.9F
SHEBOYGAN LAKESH 2000   18     330/ 19/ 22 1010.7R
PORT WASHINGTON  1940   18     300/ 11/ 18 1010.5F
MILWAUKEE LAKESH 1910   18     310/ 11/ 13   N/A
KENOSHA   LAKESH 2000   17     300/ 16/ 19 1010.2R
$$

TC  - TEMPERATURE IN CELSIUS
VSB - VISIBILITY IN STATUTE MILES
WCI - WIND CHILL INDEX
HX  - HEAT INDEX





USA.gov is the U.S. government's official web portal to all federal, state and local government web resources and services.